User: anonymous   Login
Location: San Pelegr�n
(42.1868°N, 0.0079°E)
Time: 21:19:50
(UTC+00:00)
Language:

Cosmos 1959 Rocket - Orbit

View from above orbital plane
View from above orbital plane
View from above satellite
View from above satellite

Ground track
Ground track

The orbit data is extracted from the following two-line orbital elements,

1 19325U 88062B   20093.13350476 +.00000056 +00000-0 +40974-4 0  9996
2 19325 082.9532 344.8037 0032461 257.5863 267.7834 13.77615676555698
Epoch (UTC): 02 April 2020 03:12:14
Eccentricity: 0.0032461
inclination: 82.9532°
perigee height: 948 km
apogee height: 996 km
right ascension of ascending node: 344.8037°
argument of perigee: 257.5863°
revolutions per day: 13.77615676
mean anomaly at epoch: 267.7834°
orbit number at epoch: 55569

The dashed part of the orbit path shows where the satellite is in the earth's shadow,  

DLR